TimeCST,TemperatureF,Dew PointF,Humidity,Sea Level PressureIn,VisibilityMPH,Wind Direction,Wind SpeedMPH,Gust SpeedMPH,PrecipitationIn,Events,Conditions,WindDirDegrees,DateUTC
12:15 AM,33.8,28.4,81,29.59,6.0,Calm,Calm,-,N/A,,Clear,0,2013-03-04 06:15:00
12:35 AM,33.8,30.2,87,29.59,8.0,NNW,3.5,-,N/A,,Clear,330,2013-03-04 06:35:00
12:55 AM,33.8,30.2,87,29.58,7.0,Calm,Calm,-,N/A,,Clear,0,2013-03-04 06:55:00
1:15 AM,33.8,28.4,81,29.59,6.0,NNW,5.8,-,N/A,,Clear,340,2013-03-04 07:15:00
1:55 AM,33.8,30.2,87,29.60,5.0,North,4.6,-,N/A,,Clear,350,2013-03-04 07:55:00
2:15 AM,33.8,30.2,87,29.61,5.0,NW,4.6,-,N/A,,Clear,320,2013-03-04 08:15:00
2:35 AM,33.8,30.2,87,29.59,5.0,NNW,4.6,-,N/A,,Clear,330,2013-03-04 08:35:00
2:55 AM,33.8,30.2,87,29.60,5.0,NNW,4.6,-,N/A,,Clear,330,2013-03-04 08:55:00
3:15 AM,32.0,28.4,87,29.60,4.0,NW,5.8,-,N/A,,Clear,310,2013-03-04 09:15:00
3:35 AM,32.0,28.4,87,29.61,5.0,NNW,8.1,-,N/A,,Clear,330,2013-03-04 09:35:00
3:55 AM,32.0,28.4,87,29.60,5.0,North,8.1,-,N/A,,Clear,350,2013-03-04 09:55:00
4:15 AM,33.8,28.4,81,29.61,6.0,North,9.2,-,N/A,,Clear,350,2013-03-04 10:15:00
4:35 AM,33.8,28.4,81,29.61,7.0,North,6.9,-,N/A,,Clear,10,2013-03-04 10:35:00
4:55 AM,32.0,28.4,87,29.60,5.0,North,8.1,-,N/A,,Clear,360,2013-03-04 10:55:00
5:15 AM,32.0,28.4,87,29.60,6.0,NNW,5.8,-,N/A,,Clear,340,2013-03-04 11:15:00
5:35 AM,30.2,26.6,86,29.60,5.0,NNW,4.6,-,N/A,,Clear,340,2013-03-04 11:35:00
5:55 AM,30.2,28.4,93,29.61,6.0,NNW,5.8,-,N/A,,Clear,330,2013-03-04 11:55:00
6:15 AM,30.2,26.6,86,29.63,6.0,NNW,4.6,-,N/A,,Clear,330,2013-03-04 12:15:00
6:35 AM,30.2,26.6,86,29.63,7.0,NW,6.9,-,N/A,,Clear,310,2013-03-04 12:35:00
6:55 AM,30.2,26.6,86,29.64,5.0,NW,8.1,-,N/A,,Clear,320,2013-03-04 12:55:00
7:15 AM,30.2,26.6,86,29.65,5.0,NW,8.1,-,N/A,,Clear,320,2013-03-04 13:15:00
7:35 AM,33.8,30.2,87,29.66,9.0,NNW,11.5,-,N/A,,Clear,330,2013-03-04 13:35:00
7:55 AM,37.4,30.2,75,29.67,10.0,NNW,13.8,19.6,N/A,,Clear,340,2013-03-04 13:55:00
8:15 AM,39.2,32.0,75,29.68,10.0,North,18.4,-,N/A,,Clear,350,2013-03-04 14:15:00
8:35 AM,41.0,32.0,70,29.70,10.0,North,17.3,-,N/A,,Clear,350,2013-03-04 14:35:00
8:55 AM,41.0,32.0,70,29.71,10.0,North,19.6,-,N/A,,Clear,350,2013-03-04 14:55:00
9:15 AM,41.0,33.8,76,29.71,10.0,North,23.0,28.8,N/A,,Clear,350,2013-03-04 15:15:00
9:35 AM,41.0,33.8,76,29.72,10.0,North,21.9,27.6,N/A,,Clear,360,2013-03-04 15:35:00
9:55 AM,41.0,33.8,76,29.73,10.0,North,18.4,28.8,N/A,,Clear,360,2013-03-04 15:55:00
10:15 AM,41.0,33.8,76,29.74,10.0,North,21.9,-,N/A,,Clear,360,2013-03-04 16:15:00
10:35 AM,39.2,33.8,81,29.74,10.0,North,20.7,25.3,N/A,,Clear,360,2013-03-04 16:35:00
10:55 AM,41.0,33.8,76,29.75,10.0,North,16.1,-,N/A,,Scattered Clouds,360,2013-03-04 16:55:00
11:15 AM,41.0,33.8,76,29.75,10.0,North,25.3,-,N/A,,Mostly Cloudy,10,2013-03-04 17:15:00
11:55 AM,41.0,33.8,76,29.75,10.0,North,23.0,28.8,N/A,,Overcast,360,2013-03-04 17:55:00
12:15 PM,41.0,33.8,76,29.75,10.0,North,21.9,25.3,N/A,,Overcast,10,2013-03-04 18:15:00
12:55 PM,42.8,35.6,76,29.74,10.0,North,20.7,26.5,N/A,,Overcast,360,2013-03-04 18:55:00
1:15 PM,42.8,33.8,70,29.74,10.0,NNE,24.2,-,N/A,,Overcast,20,2013-03-04 19:15:00
1:35 PM,42.8,35.6,76,29.74,10.0,North,16.1,25.3,N/A,,Overcast,10,2013-03-04 19:35:00
1:55 PM,42.8,35.6,76,29.75,10.0,North,16.1,21.9,N/A,,Overcast,10,2013-03-04 19:55:00
2:15 PM,42.8,35.6,76,29.74,10.0,North,18.4,-,N/A,,Overcast,360,2013-03-04 20:15:00
2:35 PM,42.8,35.6,76,29.75,10.0,North,18.4,-,N/A,,Overcast,10,2013-03-04 20:35:00
2:55 PM,41.0,35.6,81,29.76,10.0,North,17.3,-,N/A,,Overcast,360,2013-03-04 20:55:00
3:15 PM,42.8,35.6,76,29.77,10.0,North,16.1,-,N/A,,Overcast,360,2013-03-04 21:15:00
3:35 PM,42.8,35.6,76,29.79,10.0,North,16.1,-,N/A,,Overcast,350,2013-03-04 21:35:00
3:55 PM,42.8,35.6,76,29.80,10.0,North,18.4,-,N/A,,Overcast,350,2013-03-04 21:55:00
4:15 PM,42.8,35.6,76,29.81,10.0,North,19.6,24.2,N/A,,Overcast,350,2013-03-04 22:15:00
4:35 PM,42.8,33.8,70,29.83,10.0,NNW,17.3,21.9,N/A,,Overcast,340,2013-03-04 22:35:00
4:55 PM,42.8,33.8,70,29.84,10.0,North,18.4,25.3,N/A,,Overcast,360,2013-03-04 22:55:00
5:15 PM,42.8,33.8,70,29.86,10.0,North,16.1,25.3,N/A,,Overcast,360,2013-03-04 23:15:00
5:35 PM,41.0,33.8,76,29.87,10.0,North,15.0,23.0,N/A,,Overcast,360,2013-03-04 23:35:00
5:55 PM,41.0,33.8,76,29.89,10.0,North,15.0,-,N/A,,Overcast,350,2013-03-04 23:55:00
6:15 PM,41.0,33.8,76,29.90,10.0,North,23.0,27.6,N/A,,Overcast,350,2013-03-05 00:15:00
6:35 PM,41.0,30.2,65,29.93,10.0,North,27.6,40.3,N/A,,Overcast,350,2013-03-05 00:35:00
6:55 PM,37.4,30.2,75,29.97,10.0,North,26.5,35.7,N/A,,Overcast,350,2013-03-05 00:55:00
7:15 PM,37.4,30.2,75,29.99,10.0,North,19.6,-,N/A,,Overcast,350,2013-03-05 01:15:00
7:35 PM,37.4,30.2,75,30.01,10.0,North,19.6,26.5,N/A,,Overcast,350,2013-03-05 01:35:00
7:55 PM,37.4,32.0,81,30.03,10.0,North,16.1,23.0,N/A,,Mostly Cloudy,350,2013-03-05 01:55:00
8:35 PM,37.4,30.2,75,30.05,10.0,NNW,16.1,-,N/A,,Overcast,340,2013-03-05 02:35:00
8:55 PM,37.4,30.2,75,30.05,10.0,NNW,15.0,-,N/A,,Overcast,340,2013-03-05 02:55:00
9:15 PM,37.4,30.2,75,30.06,10.0,NNW,16.1,-,N/A,,Overcast,340,2013-03-05 03:15:00
9:35 PM,37.4,28.4,70,30.07,10.0,NNW,17.3,21.9,N/A,,Overcast,340,2013-03-05 03:35:00
9:55 PM,37.4,26.6,65,30.07,10.0,NNW,16.1,-,N/A,,Overcast,340,2013-03-05 03:55:00
10:15 PM,37.4,24.8,60,30.06,10.0,NNW,16.1,24.2,N/A,,Overcast,340,2013-03-05 04:15:00
10:35 PM,37.4,21.2,52,30.09,10.0,NNW,19.6,25.3,N/A,,Overcast,330,2013-03-05 04:35:00
10:55 PM,37.4,21.2,52,30.10,10.0,NNW,18.4,24.2,N/A,,Overcast,330,2013-03-05 04:55:00
11:15 PM,37.4,19.4,48,30.12,10.0,NNW,20.7,27.6,N/A,,Overcast,330,2013-03-05 05:15:00
11:35 PM,35.6,19.4,52,30.12,10.0,NNW,18.4,31.1,N/A,,Mostly Cloudy,330,2013-03-05 05:35:00
11:55 PM,35.6,17.6,48,30.13,10.0,NNW,19.6,27.6,N/A,,Scattered Clouds,330,2013-03-05 05:55:00